This is the latest recevied weather packets stored in our database for station/object SP7RCS-11. If no packets are shown the sender has not sent any weather packets the latest 1 day(s).
| Time | Temp. | Humidity | Pressure | Rain* | Wind** | Luminosity | Snow |
|---|---|---|---|---|---|---|---|
| 1777885194 | 36.11° C | 15% | 1008.1 hPa | - | - | - | - |
| 1777884294 | 35° C | 16% | 1008 hPa | - | - | - | - |
| 1777883393 | 35° C | 17% | 1008.1 hPa | - | - | - | - |
| 1777882493 | 33.33° C | 18% | 1008.1 hPa | - | - | - | - |
| 1777881592 | 33.33° C | 18% | 1008.2 hPa | - | - | - | - |
| 1777880692 | 32.78° C | 18% | 1008.2 hPa | - | - | - | - |
| 1777879792 | 32.22° C | 19% | 1008.2 hPa | - | - | - | - |
| 1777878892 | 30.56° C | 20% | 1008.3 hPa | - | - | - | - |
| 1777877992 | 30° C | 20% | 1008.3 hPa | - | - | - | - |
| 1777877088 | 29.44° C | 23% | 1008.3 hPa | - | - | - | - |
| 1777876188 | 27.78° C | 25% | 1008.6 hPa | - | - | - | - |
| 1777875286 | 26.67° C | 26% | 1008.6 hPa | - | - | - | - |
| 1777874385 | 25° C | 27% | 1008.6 hPa | - | - | - | - |
| 1777873485 | 24.44° C | 29% | 1008.6 hPa | - | - | - | - |
| 1777872585 | 23.33° C | 31% | 1008.6 hPa | - | - | - | - |
| 1777871685 | 21.67° C | 33% | 1008.7 hPa | - | - | - | - |
| 1777870784 | 21.11° C | 33% | 1008.6 hPa | - | - | - | - |
| 1777869880 | 20.56° C | 33% | 1008.8 hPa | - | - | - | - |
| 1777868980 | 20° C | 33% | 1008.6 hPa | - | - | - | - |
| 1777868080 | 19.44° C | 34% | 1008.6 hPa | - | - | - | - |
| 1777867179 | 19.44° C | 34% | 1008.5 hPa | - | - | - | - |
| 1777866279 | 18.89° C | 35% | 1008.5 hPa | - | - | - | - |
| 1777865379 | 18.89° C | 34% | 1008.6 hPa | - | - | - | - |
| 1777864478 | 18.89° C | 34% | 1008.7 hPa | - | - | - | - |
| 1777863578 | 18.89° C | 34% | 1008.7 hPa | - | - | - | - |
* Rain since midnight (hover to see other rain measurements)
** Current wind speed in m/s (hover to see current wind gust speed)